Location: Brzuchania
(50.3872°N, 20.0913°E)
Time: 22:16:58
(UTC+00:00)

Daily predictions for brighter satellites

Satellite Brightness Start Highest point End
(mag) Time Altitude Azimuth Time Altitude Azimuth Time Altitude Azimuth
Okean 1-7 Rocket 4.5 15:09:10 10° N 15:12:56 27° ENE 15:16:40 10° SE
Cosmos 1455 Rocket 3.7 15:09:29 10° SSW 15:13:45 57° WNW 15:18:05 10° N
USA 215 3.6 15:07:34 10° ENE 15:13:57 55° NNW 15:20:19 10° W
Cosmos 1570 Rocket 4.3 15:09:48 10° NNW 15:15:09 77° WSW 15:20:26 10° SSE
Cosmos 1634 Rocket 4.0 15:09:03 10° S 15:15:13 80° E 15:21:25 10° NNE
Cosmos 1602 Rocket 4.0 15:11:10 10° N 15:15:19 39° ENE 15:19:24 10° SE
CZ-2D R/B 4.2 15:14:03 10° ESE 15:16:16 18° ENE 15:18:30 10° NNE
Cosmos 2227 Rocket 2.6 15:11:52 10° NNW 15:17:10 40° NE 15:22:27 10° ESE
Cosmos 1461 3.7 15:17:17 10° S 15:20:43 31° ESE 15:24:14 10° ENE
Cosmos 2369 Rocket 3.8 15:16:20 10° W 15:21:03 26° NW 15:25:49 10° NNE
Cosmos 1486 Rocket 4.3 15:18:02 10° S 15:23:04 52° ESE 15:28:10 10° NNE
Cosmos 773 Rocket 4.1 15:17:50 10° NNW 15:23:05 88° WSW 15:28:20 10° SSE
BREEZE-M DEB (TANK) 2.4 15:21:19 10° W 15:23:51 79° S 15:30:17 10° E
YAOGAN 1 4.3 15:22:49 10° E 15:24:40 13° NE 15:26:31 10° NNE
Cosmos 2360 4.4 15:19:44 10° S 15:25:18 55° ESE 15:30:54 10° NE
Cosmos 2279 Rocket 4.0 15:20:48 10° S 15:26:57 70° E 15:33:10 10° NNE
Cosmos 1743 2.3 15:26:55 10° N 15:30:08 59° ENE 15:33:20 10° SSE
Cosmos 2151 3.1 15:26:19 10° N 15:30:24 51° ENE 15:34:28 10° SSE
Cosmos 1697 Rocket 3.5 15:27:40 10° SSE 15:32:32 32° ESE 15:37:27 10° NE
Cosmos 1867 3.6 15:27:43 10° NW 15:33:11 69° NE 15:38:37 10° SE
NOSS 2-2 (D) 2.8 15:33:03 10° SW 15:36:18 74° NW 15:39:04 12° NE
IGS 5A 3.3 15:34:20 10° SSE 15:38:18 90° N 15:42:18 10° NNW
MOS 1 Rocket 3.9 15:34:22 10° SE 15:38:57 38° ENE 15:43:46 10° N
Cosmos 1607 4.1 15:33:06 10° NW 15:39:20 80° SW 15:45:38 10° SSE
IRIDIUM 106 4.4 15:34:24 10° N 15:39:33 54° E 15:44:39 10° SSE
Cosmos 1900 4.3 15:38:01 10° NW 15:43:06 81° NE 15:48:05 10° SE
BREEZE-M DEB (TANK) 3.1 15:40:44 10° W 15:43:29 81° S 15:51:17 10° E
BREEZE M DEB (TANK) 4.4 15:28:05 10° WNW 15:43:30 63° SSW 15:47:36 10° SE
SAR-Lupe-4 3.9 15:40:52 10° SE 15:44:14 42° ENE 15:47:37 10° N
ARIANE 5 R/B 2.6 15:40:09 10° SE 15:45:05 56° ENE 15:50:08 10° N
Cosmos 1825 Rocket 3.9 15:44:23 10° N 15:48:33 42° ENE 15:52:39 10° SE
Cosmos 2084 Rocket 3.6 15:44:26 10° NW 15:48:39 74° SW 15:52:50 10° SE
Cosmos 2180 Rocket 4.4 15:43:02 10° S 15:49:06 72° E 15:55:17 10° NNE
NOSS 3-2 (A) 3.4 15:44:03 10° SW 15:49:10 69° NW 15:55:05 12° NE
Cosmos 1782 2.7 15:45:49 10° SSW 15:49:24 75° W 15:53:00 10° N
NOSS 3-2 (C) 3.3 15:45:44 10° SSW 15:50:42 61° SE 15:55:51 14° NE
Cosmos 1656 3.8 15:45:21 10° SSW 15:50:59 78° WNW 15:56:43 10° NNE
Cosmos 1758 Rocket 4.1 15:47:34 10° NNW 15:51:50 60° W 15:56:02 10° S
Cosmos 2098 Rocket 3.2 15:50:28 10° S 15:54:43 87° WNW 15:59:45 10° N
SAR-Lupe-1 4.2 15:51:34 10° SE 15:55:02 48° ENE 15:58:33 10° N
Gbstr 26 Del rocket 3.8 15:51:32 10° SSW 15:55:14 33° SSE 15:57:35 17° E
NOSS 2-2 (E) 3.1 15:53:21 10° SW 15:56:34 58° NW 15:58:41 17° NNE
UNK 3.7 15:52:00 10° NNE 15:56:35 65° ESE 16:01:06 10° S
Meteor 1-20 Rocket 4.1 15:53:11 10° NNW 15:58:41 87° ENE 16:04:10 10° SSE
CZ-2D R/B 4.3 15:57:11 10° ESE 16:00:44 27° ENE 16:04:16 10° N
CZ-4C R/B 3.2 15:54:19 10° NW 16:01:12 77° SW 16:09:48 10° SSE
Cosmos 2266 Rocket 3.9 15:55:28 10° N 16:01:39 83° E 16:07:43 10° S
SPOT 1/Viking Rocket 3.9 15:57:05 10° SE 16:01:55 40° ENE 16:06:46 10° N
Cosmos 2082 4.4 15:59:09 10° NNW 16:04:17 33° NE 16:08:44 13° ESE
SMAP 3.2 16:01:13 10° SSE 16:05:52 79° WSW 16:10:34 10° NNW
Cosmos 1076 Rocket 3.8 16:02:53 10° N 16:07:00 42° ENE 16:11:06 10° SE
PSLV R/B 4.4 16:06:53 20° E 16:08:10 24° ENE 16:11:26 10° N
IRS-P3 4.1 16:03:30 10° SSE 16:08:44 64° ENE 16:14:01 10° N
Cosmos 2297 Rocket 3.3 16:04:27 10° NW 16:09:53 49° WSW 16:15:18 10° S
Landsat 7 3.7 16:06:02 10° SSE 16:10:42 90° NNW 16:15:23 10° NNW
COSMO-SKYMED 1 3.9 16:12:53 19° ESE 16:12:53 19° ESE 16:15:16 10° SE
Cosmos 2058 Rocket 4.1 16:09:19 10° SE 16:12:57 25° E 16:13:33 24° ENE
SJ-6F 4.3 16:10:12 10° SSE 16:14:08 64° ENE 16:18:08 10° N
[s.n.66845] 3.7 16:12:01 10° N 16:12:44 15° N 16:12:44 15° N
Meteor 1-28 Rocket 4.0 16:11:04 10° N 16:14:17 44° WNW 16:17:28 10° SW
[s.n.66847] 3.8 16:12:27 10° N 16:13:11 15° N 16:13:11 15° N
[s.n.66846] 3.8 16:12:53 10° N 16:13:36 15° N 16:13:36 15° N
[s.n.66843] 3.8 16:13:25 10° N 16:14:08 15° N 16:14:08 15° N
[s.n.66844] 3.8 16:13:51 10° N 16:14:35 15° N 16:14:35 15° N
[s.n.66842] 3.8 16:14:23 10° N 16:15:06 15° N 16:15:06 15° N
[s.n.66841] 3.8 16:14:50 10° N 16:15:33 15° N 16:15:33 15° N
[s.n.66840] 3.8 16:15:19 10° N 16:16:03 15° N 16:16:03 15° N
[s.n.66838] 3.8 16:15:48 10° N 16:16:31 15° N 16:16:31 15° N
[s.n.66839] 3.8 16:16:18 10° N 16:17:01 15° N 16:17:01 15° N
Cosmos 1538 Rocket 4.1 16:13:29 10° NNW 16:18:41 55° ENE 16:23:54 10° SE
[s.n.66837] 3.8 16:16:44 10° N 16:17:28 15° N 16:17:28 15° N
[s.n.66836] 3.8 16:17:14 10° N 16:17:57 15° N 16:17:57 15° N
[s.n.66835] 3.8 16:17:44 10° N 16:18:27 15° N 16:18:27 15° N
[s.n.66834] 3.8 16:18:14 10° N 16:18:56 15° N 16:18:56 15° N
[s.n.66833] 3.8 16:18:40 10° N 16:19:22 15° N 16:19:22 15° N
[s.n.66832] 3.8 16:19:12 10° N 16:19:54 15° N 16:19:54 15° N
[s.n.66831] 3.8 16:19:37 10° N 16:20:19 15° N 16:20:19 15° N
[s.n.66830] 3.8 16:20:03 10° N 16:20:45 15° N 16:20:45 15° N
[s.n.66828] 3.8 16:20:28 10° N 16:21:11 15° N 16:21:11 15° N
[s.n.66829] 3.8 16:21:00 10° NNW 16:21:42 15° N 16:21:42 15° N
[s.n.66827] 3.8 16:21:31 10° NNW 16:22:13 15° N 16:22:13 15° N
Cosmos 1606 Rocket 3.5 16:19:37 10° S 16:24:01 79° E 16:28:29 10° NNE
[s.n.66826] 3.8 16:22:01 10° NNW 16:22:43 15° N 16:22:43 15° N
[s.n.66825] 3.8 16:22:28 10° NNW 16:23:08 15° N 16:23:08 15° N
[s.n.66824] 3.8 16:22:59 10° NNW 16:23:40 15° N 16:23:40 15° N
[s.n.66823] 3.8 16:23:29 10° NNW 16:24:10 15° N 16:24:10 15° N
[s.n.66822] 3.8 16:23:59 10° NNW 16:24:39 15° N 16:24:39 15° N
[s.n.66821] 3.8 16:24:26 10° NNW 16:25:07 15° N 16:25:07 15° N
Cosmos 1503 Rocket 4.2 16:23:46 10° SSW 16:28:59 72° WNW 16:33:39 13° NNE
Cosmos 2219 3.3 16:24:26 10° NNW 16:30:05 53° NE 16:35:42 10° SE
CENTAUR R/B 3.7 16:26:05 10° W 16:31:53 36° NNW 16:36:56 18° NE
SL-16 R/B 3.5 16:26:28 10° N 16:32:22 46° WNW 16:38:13 10° SW
GEOS 3 Rocket 3.7 16:28:50 21° NE 16:32:30 84° NW 16:37:53 10° SW
AQUARIUS 4.3 16:29:29 10° S 16:33:53 72° WSW 16:38:19 10° NNW
Cosmos 1980 Rocket 2.5 16:30:30 10° S 16:35:49 44° ESE 16:37:57 31° ENE
Resurs 1-3 3.7 16:31:56 10° SE 16:36:04 48° ENE 16:40:14 10° N
NOSS 2-3 (C) 3.5 16:33:29 10° SSW 16:36:45 41° SE 16:36:50 41° ESE
Lacrosse 5 rocket 2.2 16:33:55 10° WNW 16:37:12 28° N 16:37:41 27° NNE
Cosmos 1844 Rocket 3.7 16:32:33 10° NNW 16:37:14 26° NE 16:37:19 26° NE
Meteor 2-20 4.4 16:31:31 10° S 16:37:34 63° E 16:43:38 10° NNE
Cosmos 1354 Rocket 4.0 16:33:18 10° SSW 16:38:35 83° WNW 16:42:34 18° NNE
Meteor 1-5 Rocket 4.1 16:34:01 10° NNW 16:39:23 86° W 16:44:52 10° S
BREEZE M DEB (TANK) 2.9 16:39:43 10° WSW 16:41:17 33° SSW 16:41:17 33° SSW
Lacrosse 4 Rocket 3.9 16:40:27 10° NW 16:41:49 11° NNW 16:43:09 10° N
Spot 4 Rocket 3.9 16:39:36 10° SSE 16:44:39 66° ENE 16:49:44 10° N
Cosmos 2263 Rocket 2.1 16:39:21 10° NNW 16:45:04 89° ENE 16:50:46 10° SSE
Cosmos 1244 Rocket 4.5 16:40:28 10° N 16:46:42 59° ENE 16:52:48 10° SSE
Cosmos 1726 Rocket 3.7 16:43:20 10° SSW 16:47:59 82° W 16:51:54 14° N
Cosmos 2369 4.4 16:43:42 10° SSE 16:48:44 33° ESE 16:48:44 33° ESE
Cosmos 1898 Rocket 3.8 16:44:53 10° S 16:49:41 41° ESE 16:49:57 41° E
USA 238 DEB 3.6 16:45:25 10° SSW 16:51:21 56° ESE 16:53:47 36° ENE
USA 238 3.6 16:45:32 10° SSW 16:51:28 55° ESE 16:53:53 36° ENE
Cosmos 44 Rocket 4.3 16:49:10 10° NNW 16:53:32 32° NNE 16:53:32 32° NNE
USA 215 3.5 16:53:50 34° ENE 16:56:26 53° N 17:02:46 10° WNW
Cosmos 1461 3.8 16:53:42 10° WSW 16:57:24 39° NW 16:58:30 32° N
OceanSat 1 rocket 4.5 16:52:44 10° SSE 16:57:25 64° ENE 17:02:05 10° N
Meteor 2-20 Rocket 4.3 16:53:09 10° S 16:59:18 65° E 17:04:05 16° NNE
YAOGAN 1 2.4 16:55:34 10° SSE 16:59:49 84° ENE 17:04:07 10° NNW
SKYMED 2 3.4 16:58:49 41° NNE 17:00:20 85° ESE 17:04:41 10° SSW
Cosmos 923 Rocket 4.0 16:55:28 10° NNW 17:00:36 55° ENE 17:01:12 52° E
Cosmos-2242 3.0 16:56:28 10° S 17:00:12 58° SE 17:00:12 58° SE
Cosmos 2227 Rocket 3.3 16:55:58 10° NW 17:01:17 44° WSW 17:06:35 10° S
SL-08 R/B 4.4 16:55:13 10° N 17:01:31 64° ENE 17:07:47 10° SSE
Cosmos 372 Rocket 3.9 16:57:21 10° S 17:02:26 63° ESE 17:03:16 54° ENE
BREEZE-M DEB (TANK) 4.3 17:00:19 10° SW 17:02:20 21° S 17:02:20 21° S
NOSS 2-3 (E) 3.1 17:00:05 10° SW 17:03:38 85° WSW 17:03:38 85° WSW
NOSS 2-3 (D) 3.1 17:00:43 10° SW 17:04:14 81° SSW 17:04:14 81° SSW
Cosmos 1386 Rocket 4.5 17:00:48 10° N 17:06:45 52° ENE 17:12:45 10° SSE
Cosmos 1937 Rocket 4.1 17:03:40 10° S 17:07:22 38° SE 17:07:22 38° SE
Meteor 2-10 4.3 17:09:05 10° NNW 17:14:25 71° W 17:19:55 10° S
Cosmos 1697 Rocket 3.3 17:10:48 10° SW 17:16:15 52° NW 17:19:15 26° N
BREEZE-M DEB (TANK) 4.4 16:49:34 10° W 17:16:16 79° SSW 17:19:11 39° ESE
Aureole 1 Rocket 3.3 17:13:54 10° SSW 17:18:27 89° WNW 17:19:37 56° NNE
Cosmos 2278 Rocket 4.5 17:19:52 10° N 17:19:59 10° N 17:19:59 10° N
Resurs 01 Rocket 4.1 17:29:46 11° N 17:29:46 11° N 17:29:57 10° N
NOAA 6 4.1 17:26:25 10° S 17:31:31 75° WSW 17:36:38 10° NNW
COSMOS 2455 4.1 17:26:45 10° S 17:29:38 26° SSE 17:29:38 26° SSE
Cosmos 1680 Rocket 3.9 17:27:51 10° NNW 17:31:45 50° N 17:31:45 50° N
Meteor 2-2 Rocket 4.3 17:34:28 10° SSW 17:40:06 73° WNW 17:41:51 45° N
Gbstr 26 Del rocket 4.3 17:37:23 10° WSW 17:39:37 32° W 17:39:37 32° W
NOSS 3-2 (C) 4.3 17:36:47 10° W 17:41:52 40° NNW 17:43:16 35° N
COSMO-SKYMED 1 4.0 17:49:13 33° WSW 17:49:13 33° WSW 17:51:45 10° SW
Cosmos 2082 4.2 17:43:06 10° NW 17:48:42 58° WSW 17:50:41 38° S
Cosmos 2058 Rocket 4.3 17:46:22 10° SW 17:50:36 41° WNW 17:50:45 40° WNW
USA 281 4.5 18:22:44 29° N 18:22:44 29° N 18:25:51 10° NNW
Cosmos 1980 Rocket 3.3 18:14:36 10° WSW 18:19:44 39° NW 18:19:44 39° NW
Cosmos 1844 Rocket 4.1 18:16:04 10° NNW 18:18:59 32° NW 18:18:59 32° NW
CENTAUR R/B 4.1 18:18:20 10° NW 18:24:02 31° N 18:24:02 31° N
USA 215 3.9 18:41:10 49° NW 18:41:10 49° NW 18:45:46 10° WNW
